Weather in Slutsk

Belarus     53°01′39″N   27°33′07″E
temp.,
°C
wind,
m/s
gust,
m/s
humid.,
%
clouds,
%
prec.,
mm/h
press.,
hPa
HPBL,
m
10 august, wed
wed1000:00+16n347676 0.0 102490
03:00+13n348826 0.0 102467
06:00+12nne35935 0.0 102479
09:00+18n35674 0.0 1024379
12:00+22nne34504 0.0 10241524
15:00+21n3459100 0.1 1023149
18:00+22ene235499 0.0 1022309
21:00+19ne356094 0.0 1023106
11 august, thu
thu1100:00+14nne35825 0.0 102383
03:00+13nne35863 0.0 102373
06:00+12nne48915 0.0 1023123
09:00+19ne6106297 0.0 1023525
12:00+22ne7105034 0.0 10221209
15:00+21ene5855100 0.1 1022770
18:00+24ene575293 0.0 10211678
21:00+20ne49705 0.0 1021228
12 august, fri
fri1200:00+17ne411865 0.0 1022221
03:00+16ne410925 0.0 1022207
06:00+15ne410955 0.0 1022203
09:00+20ene58725 0.1 1022453
12:00+24e686349 0.5 1022707
15:00+27e5750100 0.5 10211112
18:00+27ese6756100 0.0 10211409
21:00+19e2383100 0.4 102167
13 august, sat
sat1300:00+20ene41178100 0.0 1022305
03:00+19ene4988100 0.1 1021239
06:00+19ene6138494 0.4 1021438
09:00+22ene5117195 0.4 1020533
12:00+20ene5880100 0.0 1020376
15:00+21ene4777100 0.0 1020376
18:00+21ene4979100 0.0 1019368
21:00+21ne4981100 0.0 1018283
14 august, sun
sun1400:00+19ene3781100 0.0 1018165
03:00+18ne4882100 0.0 1017174
06:00+17ne4889100 0.1 1017170
09:00+22ene487397 0.2 1016352
12:00+27ene71150100 0.0 10151088
15:00+23ene5966100 0.0 1015668
18:00+24ene51065100 0.0 1014594
21:00+21ene498183 0.0 1014178